184  
ASUS46 KPDT 210604  
RWRPDT  
PENDLETON REGIONAL WEATHER ROUNDUP  
NATIONAL WEATHER SERVICE PENDLETON OREGON  
1000 PM PST SAT DEC 20 2014  
 
NOTE: FAIR INDICATES FEW OR NO CLOUDS BELOW 12,000 FEET WITH NO  
SIGNIFICANT WEATHER AND/OR S TO VISIBILITY
.  
 
# INDICATES UNOFFICIAL STATION AND DATA  
 
WAZ520-210710-  
EAST SLOPES OF WASHINGTON CASCADES  
 
CITY SKY/WX TMP DP RH WIND PRES REMARKS
 
#BULLFROG N/A 32 32 100 SW5 N/A  
#BULLFROG 2SW N/A 35 35 100 CALM 27.11F  
#BUMPING DAM N/A 33 N/A N/A S10G25 N/A  
#CLE ELUM HS N/A 33 32 96 CALM 29.49F  
#CLE ELUM 2NW N/A 32 32 100 W1 N/A  
#CLE ELUM LAKE N/A 33 32 96 SE1 29.53F  
#EASTON DOT N/A 33 33 100 S16 N/A WCI 23  
#ELK HTS DOT N/A 36 36 100 E1 N/A  
#GLENWOOD N/A 40 40 100 CALM 29.62S  
#MANASTASH CYN N/A 34 31 89 CALM 29.49F  
#NELSON N/A 32 31 96 CALM 29.56F  
#NELSON 3SW N/A 31 30 96 CALM 29.74F  
#NILE N/A 34 34 100 CALM 28.81F  
#PEOH POINT N/A 34 34 100 S5 N/A  
#RONALD 2NW N/A 33 32 96 S1 29.37F  
#SNOWDEN N/A 48 47 96 CALM N/A  
#TEANAWAY 4NE N/A 38 38 100 S3 N/A  
#TROUT LAKE HS N/A 39 39 100 CALM N/A  
#TROUT LAKE 1NE N/A 37 36 96 CALM 29.64R  

 
 
WAZ521-210710-  
SIMCOE HIGHLANDS  
 
CITY SKY/WX TMP DP RH WIND PRES REMARKS
 
#BICKLETON HS N/A 44 44 100 W7 34.25S  
#SATUS PASS DOT N/A 43 42 96 CALM N/A  
#CENTERVILLE 4W N/A 48 47 96 W6 29.38S  
#CENTERVILLE 1SWN/A 48 45 89 SW9 29.57F  
#GOLDENDALE N/A 45 45 100 CALM N/A  
#GOLDENDALE 1NE N/A 45 45 100 N3 N/A  
#GOLDENDALE 1S N/A 46 45 96 CALM 29.59F  
#GOLDENDALE 5WNWN/A 46 45 96 CALM 29.61S  
#GOODNOE HILLS N/A 49 46 89 W12 N/A WCI 44  
#LYLE 6NE N/A 44 44 100 CALM 29.61S  

 
 
WAZ026-210710-  
KITTITAS VALLEY  
 
CITY SKY/WX TMP DP RH WIND PRES REMARKS
 
ELLENSBURG AP LGT RAIN 42 39 89 NE6 29.49F FOG  
6HR MIN TEMP: 40; 6HR MAX TEMP: 42; 6HR PCP: 0.14;  
 
#ELLENSBURG CWU N/A 38 37 96 CALM 29.49F  
#ELLENSBURG 3NE N/A 39 38 96 E5 29.53F  
#ELLENSBURG N/A 41 41 100 N1 N/A  
#ELLENSBURG 1E N/A 38 37 96 CALM N/A  
#KITTITAS 3S N/A 37 36 96 CALM 29.52F  
#MANASTASH RDG N/A 40 40 100 S13 N/A WCI 32  
#ROCKY CYN DOT N/A 38 38 100 E1 N/A  
#RYEGRASS DOT N/A 40 39 96 W8 N/A  
#THORP 6N N/A 37 37 100 E7 29.55F  

 
 
WAZ027-210710-  
YAKIMA VALLEY  
 
CITY SKY/WX TMP DP RH WIND PRES REMARKS
 
YAKIMA AIRPORT MOCLDY 41 38 89 W6 29.52F FOG  
6HR MIN TEMP: 40; 6HR MAX TEMP: 43; 6HR PCP: 0.07;  
 
YAKIMA-VAGABOND LGT RAIN 39 38 96 VRB1 29.52F FOG  
#DONALD 2NE N/A 42 41 96 CALM 28.38F  
#GRANDVIEW N/A 52 46 80 CALM 29.58S  
#MABTON N/A 54 50 86 S12G25 29.54S  
#MOXEE 2E N/A 37 35 92 CALM 29.95R  
#NACHES 2SW N/A 39 38 96 CALM 29.52S  
#PARKER DOT N/A 42 41 96 SW1 N/A  
#SELAH 8E N/A 45 44 96 S14 N/A WCI 39  
#TERRACE HTS N/A 41 40 96 CALM 29.51F  
#I82 S UMTANUM RN/A 41 40 96 S2 N/A  
#UNION GAP DOT N/A 41 41 100 SW1 N/A  
#WAPATO 4NE N/A 42 41 96 CALM 28.38F  
#WEST VALLEY N/A 39 38 96 CALM 29.53F  
#WHITE SWAN 5E N/A 39 38 96 S2 29.56F  
#WILEY CITY 3W N/A 37 33 85 CALM 29.55F  
#ZILLAH DOT N/A 42 42 100 E1 N/A  

 
 
WAZ028-210710-  
LOWER COLUMBIA BASIN...WASHINGTON  
 
CITY SKY/WX TMP DP RH WIND PRES REMARKS
 
PASCO PTCLDY 51 47 86 SW16 29.57F  
6HR MIN TEMP: 48; 6HR MAX TEMP: 53; 6HR PCP: 0.01;  
 
PROSSER AWOS N/A 55 50 83 S25 29.56F  
RICHLAND AWOS LGT DRIZZLE 52 46 80 E3 29.57S  
#BASIN CITY 5SW N/A 51 48 89 S8 29.55S  
#BENTON CITY N/A 52 48 86 S29G44 29.45F  
#CONNELL 5N N/A 47 45 93 S10 29.56R  
#CONNELL 5NW N/A 47 45 93 S15 29.52R WCI 41  
#ELTOPIA N/A 50 48 93 S8 29.53F  
#ELTOPIA 6NW N/A 50 48 93 S10G25 28.53R  
#KAHLOTUS N/A 48 46 93 W21G29 29.57R WCI 41  
#KENNEWICK N/A 35 35 100 CALM 27.11F  
#KENNEWICK 3S N/A 49 46 89 S9 29.56S  
#PASCO-BROADMOORN/A 51 46 83 CALM 29.47S  
#PATERSON N/A 42 41 96 CALM 29.59F  
#PROSSER DOT N/A 53 48 83 W8 N/A  
#PROSSER N/A 49 46 89 S20G33 29.53F WCI 42  
#SAGEMOOR 2W N/A 49 46 89 S2 29.43F  
#TOUCHET 2S N/A 54 47 77 SW13G24 29.58S  
#WEST PASCO N/A 51 46 83 SE1 29.54R  

 
 
WAZ029-210710-  
FOOTHILLS OF THE BLUES...WASHINGTON  
 
CITY SKY/WX TMP DP RH WIND PRES REMARKS
 
WALLA WALLA AP CLOUDY 54 46 74 S15 29.61S  
6HR MIN TEMP: 50; 6HR MAX TEMP: 54; 6HR PCP: 0.26;  
 
#COLLEGE PLACE N/A 54 45 71 S8 29.63S  
#DAYTON SCHOOL N/A 53 44 71 S20G41 29.62S  
#LOWDEN 2SE N/A 55 47 74 SW14G24 29.57R  
#PLEASANT VIEW 1N/A 46 45 96 S20G29 29.62S WCI 38  
#PRESCOTT N/A 50 48 93 SW2 29.60S  
#SUDBURY N/A 54 N/A N/A CALM N/A  
#WHITMAN COLLEGEN/A 53 47 80 S7 29.66F  
#WAITSBURG 5S N/A 50 46 86 S23G35 29.70S  
#WALLA WALLA 5E N/A 54 47 77 S28G36 N/A  
#WALLA WALLA U N/A 56 48 74 SE7 29.62S  
#WHITMAN MISSIONN/A 55 48 77 S13 29.62F  

 
 
WAZ030-210710-  
BLUE MOUNTAINS...WASHINGTON  
 
CITY SKY/WX TMP DP RH WIND PRES REMARKS
 
#DIXIE 5SE N/A 47 43 86 S20G31 29.55S WCI 40  

 
 
ORZ009-041-WAZ024-210710-  
COLUMBIA RIVER GORGE  
 
CITY SKY/WX TMP DP RH WIND PRES REMARKS
 
HOOD RIVER AP LGT RAIN 41 41 100 CALM 29.63R  
THE DALLES AP LGT RAIN 43 42 96 CALM 29.64S FOG  
6HR MIN TEMP: 42; 6HR MAX TEMP: 43; 6HR PCP: 0.40;  
 
#ARLINGTON AIRPON/A 47 46 96 W12 30.00S WCI 42  
#ARLINGTON HS N/A 46 45 96 SE7 29.50F  
#CELILO DOT N/A 43 41 93 SW1 N/A  
#LYLE N/A 43 42 96 CALM 29.63F  
#MARYHILL N/A 43 N/A N/A NE14 N/A WCI 36  
#MARYHILL 2W N/A 42 42 100 CALM N/A  
#MOSIER 1S N/A 43 42 96 CALM 29.65S  
#MURDOCK N/A 44 44 100 CALM 29.66S  
#RUFUS DOT N/A 44 42 93 CALM N/A  
 

 
 
ORZ510-210710-  
NORTH CENTRAL OREGON  
 
CITY SKY/WX TMP DP RH WIND PRES REMARKS
 
#CHENOWITH 1W N/A 45 45 100 SE5 N/A  
#COW CYN RST AREN/A 48 46 93 S14 N/A WCI 42  
#DUFUR 9E N/A 50 48 93 S29G38 29.65F  
#GRASS VALLEY N/A 47 47 100 SE12 N/A WCI 42  
#GRASS VALLEY 1SN/A 47 46 96 SW16G24 29.65F WCI 41  
#KENT DOT N/A 49 42 77 S25 N/A WCI 41  
#MAUPIN SCHOOL N/A 52 49 89 S1 29.66F  
#MORO SCHOOL N/A 50 50 100 S7 29.62F  
#SHANIKO 4NW N/A 45 44 96 SW6 29.66S  
#TYGH VALLEY 2NEN/A 53 50 89 SW2 29.65F  
#WAPANITIA AIRPON/A 51 48 89 SW7 29.66F  
#WASCO DOT N/A 46 44 93 E2 N/A  
#WASCO 5NE N/A 49 47 93 S6 29.61F  

 
 
ORZ511-210710-  
CENTRAL OREGON  
 
CITY SKY/WX TMP DP RH WIND PRES REMARKS
 
BEND AIRPORT LGT RAIN 46 43 89 SW18 29.79R WCI 39  
MADRAS AIRPORT LGT RAIN 50 46 86 S20G25 29.72R  
PRINEVILLE AP CLOUDY 50 45 83 SW14 29.78S  
REDMOND AIRPORT LGT RAIN 47 44 89 S15G26 29.76R WCI 41  
6HR MIN TEMP: 44; 6HR MAX TEMP: 47; 6HR PCP: 0.14;  
 
#BEND 1SW N/A 43 42 96 SW3 N/A  
#BEND-AWBREY N/A 44 44 100 S8 29.83R  
#BEND-KIM LN N/A 45 43 93 SW8 29.76R  
#CROOKED RVR RANN/A 47 45 93 SW5 29.76R  
#CULVER N/A 51 45 80 S14 29.69R  
#LAKE BILLY CHINN/A 47 42 83 S9 29.83R  
#POWELL BUTTE 3EN/A 50 43 77 SW17G31 N/A  
#POWELL BUTTE N/A 48 43 83 W13 29.43R WCI 43  
#PRINEVILLE 3N N/A 49 45 86 CALM 29.76R  
#WARM SPRINGS N/A 52 49 89 CALM 29.69R  
 
 
ORZ509-210710-  
EAST SLOPES OF OREGON CASCADES  
 
CITY SKY/WX TMP DP RH WIND PRES REMARKS
 
#BLUE BOX PASS N/A 46 -6 11 NW8 N/A  
#BLACK BUTTE RNCN/A 48 47 96 SW1 29.78R  
#CAMP SHERMAN N/A 48 46 93 S2 29.74R  
#LA PINE DOT N/A 43 41 93 S7 N/A  
#LA PINE 4NW N/A 42 39 89 CALM 29.95R  
#LAVA BUTTE DOT N/A 42 40 93 SE6 N/A  
#MT BACHELOR-MIDN/A 33 33 100 E37G54 N/A WCI 18  
#SISTERS AIRPOR N/A 50 50 100 N5 30.17S  
#SISTERS ODOT N/A 50 N/A N/A E3 N/A  
#SISTERS 3N N/A 46 45 96 CALM 29.81S  
#SUNRIVER N/A 43 42 96 SW6 29.77R  
#TUMALO 3W N/A 45 43 93 SE6 29.70R  
#WANOGA BUTTE D N/A 36 36 100 W12 N/A WCI 28  
 

 
 
ORZ044-210710-  
LOWER COLUMBIA BASIN...OREGON  
 
CITY SKY/WX TMP DP RH WIND PRES REMARKS
 
HERMISTON MOCLDY 55 46 72 SW14 29.57F  
6HR MIN TEMP: 45; 6HR MAX TEMP: 55; 6HR PCP: 0.02;  
 
#BOARDMAN 3W N/A 42 42 100 W3 29.32S  
#BOARDMAN 8SW N/A 47 46 96 CALM 29.62R  
#ECHO 8SW N/A 56 46 69 SW23G30 29.56F  
#IONE SCHOOL N/A 56 40 55 S7 29.62S  
#IRRIGON 4NW N/A 43 43 100 E1 N/A  
#UMATILLA SCHOOLN/A 40 40 100 CALM 29.63F  
#UMATILLA N/A 44 40 86 CALM 29.57F  

 
 
ORZ507-210710-  
NORTHERN FOOTHILLS OF THE BLUES  
 
CITY SKY/WX TMP DP RH WIND PRES REMARKS
 
PENDLETON AIRPT CLOUDY 52 43 71 S17 29.61F  
6HR MIN TEMP: 47; 6HR MAX TEMP: 52; 6HR PCP: 0.07;  
 
#ADAMS 3WNW N/A 47 46 96 SW13 29.65S WCI 41  
#ATHENA N/A 49 45 86 S5 29.66F  
#CAYUSE N/A 56 46 69 SW22G35 29.63F  
#HELIX SCHOOL N/A 49 45 86 S15 29.65S WCI 43  
#HELIX 3N N/A 48 44 86 S25G35 29.60F WCI 40  
#HOLDMAN 5SE N/A 51 47 86 S3 29.63S  
#HOLDMAN 6E N/A 48 45 89 NW15 29.44F WCI 42  
#M-F GROVE ELEM N/A 53 44 71 S2 29.61F  
#M-FREEWATER 5SEN/A 52 45 77 S5 29.65F  
#PENDLETON DNTN N/A 55 44 66 SW7 28.43S  
#PDT AQUATIC CTRN/A 55 46 72 S8G24 29.61S  
#PENDLETON 5NE N/A 52 47 83 SW9 29.60F  
#PENDLETON 7NW N/A 51 44 77 S7 N/A  
#PILOT ROCK N/A 53 40 61 S17G26 29.67S  
#TUTUILLA N/A 53 45 74 S15G25 29.65S  
#UMAPINE 2E N/A 55 49 80 S9 29.57S  
#WESTON SCHOOL N/A 50 43 77 SW9 29.62F  
 

 
 
ORZ508-210710-  
SOUTHERN FOOTHILLS OF THE BLUES  
 
CITY SKY/WX TMP DP RH WIND PRES REMARKS
 
LEXINGTON LGT DRIZZLE 55 48 77 S18G30 29.61F  
#AJAX N/A 52 43 71 S21G37 29.57S  
#CONDON SCHOOL N/A 50 47 89 CALM 29.65S  
#CONDON 5W N/A 47 44 89 S22G35 29.65R WCI 39  
#FOSSIL SCHOOL N/A 51 45 80 SW14 29.69R  
#HEPPNER EOC N/A 51 43 74 SE6 29.61S  
#HEPPNER 4NE N/A 48 43 83 S5 29.67R  
#LEXINGTON 2SE N/A 55 47 74 SW9 29.61R  
#MIKKALO N/A 53 46 77 S17G25 29.62S  
#OLEX 4N N/A 54 50 86 SW17G24 29.61R  
#RUGGS 5NE N/A 48 44 86 S16 29.81S WCI 42  
#RUGGS 2SW N/A 51 45 80 SW16G26 29.68S  
 

 
 
ORZ502-503-210710-  
BLUE MOUNTAINS  
 
CITY SKY/WX TMP DP RH WIND PRES REMARKS
 
MEACHAM RAIN 41 40 96 CALM 29.68R FOG  
6HR MIN TEMP: 35; 6HR MAX TEMP: 42; 6HR PCP: 0.86;  
 
#BATTLE MTN DOT N/A 37 37 100 S9 N/A  
#HARDMAN 10S N/A 40 39 96 S8 29.91S  
#HEPPNER 15SE N/A 44 42 93 N5 29.60R  
#LADD CYN SMT N/A 35 33 92 SE26 N/A WCI 22  
#LADD CREEK ODOTN/A 38 36 92 S7 N/A  
#LONG CREEK HS N/A 44 43 96 CALM 29.69S  
#N POWDER DOT N/A 38 36 92 SE14G24 N/A WCI 30  
#PIKES PEAK N/A 45 42 89 SW38G50 27.99S WCI 34  
#TOLLGATE N/A 34 33 96 CALM 29.64S  
#TROY SCHOOL N/A 37 35 92 W2 29.61S  
#UKIAH N/A 41 39 93 N3 29.84R  
#WESTON 4E N/A 43 42 96 SE9 29.64S  

 
 
ORZ505-210710-  
JOHN DAY BASIN  
 
CITY SKY/WX TMP DP RH WIND PRES REMARKS
 
JOHN DAY LGT RAIN 45 40 82 SW16G24 29.80R WCI 38  
#JOHN DAY KJDY N/A 47 47 100 S7 29.94R  
#DAYVILLE SCHOOLN/A 32 29 89 CALM 30.16S  
#MONUMENT HS N/A 41 39 93 CALM 29.77S  
#MT. VERNON 5SE N/A 44 41 89 S3 29.73F  
#WINLOCK N/A 43 42 96 CALM 29.85R  

 
 
ORZ506-210710-  
OCHOCO AND JOHN DAY HIGHLANDS  
 
CITY SKY/WX TMP DP RH WIND PRES REMARKS
 
#BUCK CREEK DOT N/A 47 46 96 SW12 N/A WCI 42  
#HORSE RIDGE DO N/A 47 40 76 SW16G31 N/A WCI 41  
#KEYES SMT DOT N/A 45 39 79 CALM N/A  
#PRAIRIE CITY N/A 37 34 89 E1 29.89F  
#SENECA N/A 39 N/A N/A S9 N/A  
#SENECA 9NW N/A 33 32 96 CALM 29.89F  

 
 
ORZ049-210710-  
GRANDE RONDE VALLEY  
 
CITY SKY/WX TMP DP RH WIND PRES REMARKS
 
LA GRANDE CLOUDY 41 32 70 S10 29.73S  
#COVE N/A 44 38 79 CALM 30.03S  
#COVE SCHOOL N/A 44 40 86 SE6 29.73R  
#COVE 6NW N/A 39 36 89 S5 29.82R  
#ELGIN 3N N/A 40 35 82 S16 29.45R WCI 32  
#ELGIN 1E N/A 41 37 86 S5 N/A  
#IMBLER SCHOOL N/A 39 36 89 S7 29.70S  
#ISLAND CITY 4N N/A 55 54 96 CALM 29.66R  
#LADD CYN DOT N/A 41 35 79 S25G41 N/A WCI 31  
#UNION 1S N/A 41 37 86 E7 29.70S  

 
 
ORZ050-210710-  
WALLOWA COUNTY  
 
CITY SKY/WX TMP DP RH WIND PRES REMARKS
 
#ENTERPRISE AP N/A 38 32 79 NE14 29.65F WCI 30  
#ENTERPRISE HS N/A 39 36 89 E6 29.72S  
#IMNAHA SCHOOL N/A 44 38 79 SW16G25 29.75R WCI 37  
#IMNAHA 10S N/A 42 35 76 SW7 29.74F  
#JOSEPH 3N N/A 37 35 92 E12 29.71F WCI 29  
#JOSEPH 3W N/A 38 36 92 NW1 29.56R  
#LOSTINE N/A 37 35 92 N5 29.59R  
#MT HOWARD 8000 N/A 32 30 92 W25G51 29.64F WCI 19  
#PROMISE 1S N/A 38 36 92 NE3 29.83S  
#SHEEP RDG 7000 N/A 34 32 92 CALM 29.70F  
#WALLOWA SCHOOL N/A 34 33 96 CALM 30.76R  
 

 
 
CLICK HERE TO GO TO PREVIOUS BULLETINS.

The Nexlab OR Page
The Nexlab WA Page Main Text Page